Location: *
(41.7492°S, 135.4150°W)
Time: 23:30:50
(UTC+00:00)

METEOR M2 - Pass Details

Date: 05 July 2022
Orbit: 818 x 827 km, 98.4° (Epoch: 17 August)

Event Time Altitude Azimuth Distance (km) Brightness Sun altitude
Exits shadow 04:52:19 40° 246° (WSW) 1,203 ? -34.4°
Maximum altitude 04:52:25 40° 249° (WSW) 1,203 ? -34.4°
Drops below altitude 10° 04:57:24 10° 317° (NW) 2,427 ? -35.3°
Sets 04:59:52 0° 324° (NW) 3,353 ? -35.8°
